owner,sensor,date,latitude,longitude,vertical_datum,mass_concentration_of_oxygen_in_sea_water,qcFlag 
SCCF RECON,ioos:station:SCCF:12:1,2009-07-01T00:00:00Z,26.4966,-82.1479,2.32,5.31,1111122 
SCCF RECON,ioos:station:SCCF:12:1,2009-07-01T01:00:00Z,26.4966,-82.1479,2.4,6.02,1111122 
SCCF RECON,ioos:station:SCCF:12:1,2009-07-01T02:00:00Z,26.4966,-82.1479,2.4,5.31,1111122 
SCCF RECON,ioos:station:SCCF:12:1,2009-07-01T03:00:00Z,26.4966,-82.1479,2.38,5.57,1111122 
SCCF RECON,ioos:station:SCCF:12:1,2009-07-01T04:00:00Z,26.4966,-82.1479,2.33,5.27,1111122 
SCCF RECON,ioos:station:SCCF:12:1,2009-07-01T05:00:00Z,26.4966,-82.1479,2.354,5.12,1111122 
SCCF RECON,ioos:station:SCCF:12:1,2009-07-01T06:00:00Z,26.4966,-82.1479,2.38,5.28,1111122 
SCCF RECON,ioos:station:SCCF:12:1,2009-07-01T07:00:00Z,26.4966,-82.1479,2.31,5.0,1111122 
SCCF RECON,ioos:station:SCCF:12:1,2009-07-01T08:00:00Z,26.4966,-82.1479,2.33,4.32,1111122 
SCCF RECON,ioos:station:SCCF:12:1,2009-07-01T09:00:00Z,26.4966,-82.1479,2.38,5.04,1111122 
SCCF RECON,ioos:station:SCCF:12:1,2009-07-01T10:00:00Z,26.4966,-82.1479,2.47,3.54,1111122 
SCCF RECON,ioos:station:SCCF:12:1,2009-07-01T11:00:00Z,26.4966,-82.1479,2.52,3.32,1111122 
SCCF RECON,ioos:station:SCCF:12:1,2009-07-01T12:00:00Z,26.4966,-82.1479,2.57,4.05,1111122 
SCCF RECON,ioos:station:SCCF:12:1,2009-07-01T13:00:00Z,26.4966,-82.1479,2.63,3.62,1111122 
SCCF RECON,ioos:station:SCCF:12:1,2009-07-01T14:00:00Z,26.4966,-82.1479,2.66,5.3,1111122 
SCCF RECON,ioos:station:SCCF:12:1,2009-07-01T15:00:00Z,26.4966,-82.1479,2.64,5.27,1111122 
SCCF RECON,ioos:station:SCCF:12:1,2009-07-01T16:00:00Z,26.4966,-82.1479,2.55,5.19,1111122 
SCCF RECON,ioos:station:SCCF:12:1,2009-07-01T17:00:00Z,26.4966,-82.1479,2.45,5.19,1111122 
SCCF RECON,ioos:station:SCCF:12:1,2009-07-01T18:00:00Z,26.4966,-82.1479,2.31,4.76,1111122 
SCCF RECON,ioos:station:SCCF:12:1,2009-07-01T19:00:00Z,26.4966,-82.1479,2.18,4.5,1111122 
SCCF RECON,ioos:station:SCCF:12:1,2009-07-01T20:00:00Z,26.4966,-82.1479,2.09,5.49,1111122 
SCCF RECON,ioos:station:SCCF:12:1,2009-07-01T21:00:00Z,26.4966,-82.1479,2.043,6.11,1111122 
SCCF RECON,ioos:station:SCCF:12:1,2009-07-01T22:00:00Z,26.4966,-82.1479,2.073,5.9,1111122 
SCCF RECON,ioos:station:SCCF:12:1,2009-07-01T23:00:00Z,26.4966,-82.1479,2.15,5.8,1111122 
SCCF RECON,ioos:station:SCCF:12:1,2009-07-02T00:00:00Z,26.4966,-82.1479,2.327,5.91,1111122 
SCCF RECON,ioos:station:SCCF:12:1,2009-07-02T01:00:00Z,26.4966,-82.1479,2.38,5.1,1111122 
SCCF RECON,ioos:station:SCCF:12:1,2009-07-02T02:00:00Z,26.4966,-82.1479,2.362,5.29,1111122 
SCCF RECON,ioos:station:SCCF:12:1,2009-07-02T03:00:00Z,26.4966,-82.1479,2.34,5.88,1111122 
SCCF RECON,ioos:station:SCCF:12:1,2009-07-02T04:00:00Z,26.4966,-82.1479,2.33,5.61,1111122 
SCCF RECON,ioos:station:SCCF:12:1,2009-07-02T05:00:00Z,26.4966,-82.1479,2.346,4.41,1111122 
SCCF RECON,ioos:station:SCCF:12:1,2009-07-02T06:00:00Z,26.4966,-82.1479,2.42,4.51,1111122 
SCCF RECON,ioos:station:SCCF:12:1,2009-07-02T07:00:00Z,26.4966,-82.1479,2.48,5.19,1111122 
SCCF RECON,ioos:station:SCCF:12:1,2009-07-02T08:00:00Z,26.4966,-82.1479,2.47,5.4,1111122 
SCCF RECON,ioos:station:SCCF:12:1,2009-07-02T09:00:00Z,26.4966,-82.1479,2.46,4.11,1111122 
SCCF RECON,ioos:station:SCCF:12:1,2009-07-02T10:00:00Z,26.4966,-82.1479,2.482,5.13,1111122 
SCCF RECON,ioos:station:SCCF:12:1,2009-07-02T11:00:00Z,26.4966,-82.1479,2.55,4.78,1111122 
SCCF RECON,ioos:station:SCCF:12:1,2009-07-02T12:00:00Z,26.4966,-82.1479,2.6,4.52,1111122 
SCCF RECON,ioos:station:SCCF:12:1,2009-07-02T13:00:00Z,26.4966,-82.1479,2.65,4.28,1111122 
SCCF RECON,ioos:station:SCCF:12:1,2009-07-02T14:00:00Z,26.4966,-82.1479,2.69,3.96,1111122 
SCCF RECON,ioos:station:SCCF:12:1,2009-07-02T15:00:00Z,26.4966,-82.1479,2.69,4.84,1111122 
SCCF RECON,ioos:station:SCCF:12:1,2009-07-02T16:00:00Z,26.4966,-82.1479,2.62,5.13,1111122 
SCCF RECON,ioos:station:SCCF:12:1,2009-07-02T17:00:00Z,26.4966,-82.1479,2.52,5.27,1111122 
SCCF RECON,ioos:station:SCCF:12:1,2009-07-02T18:00:00Z,26.4966,-82.1479,2.403,5.59,1111122 
SCCF RECON,ioos:station:SCCF:12:1,2009-07-02T19:00:00Z,26.4966,-82.1479,2.28,5.25,1111122 
SCCF RECON,ioos:station:SCCF:12:1,2009-07-02T20:00:00Z,26.4966,-82.1479,2.199,5.43,1111122 
SCCF RECON,ioos:station:SCCF:12:1,2009-07-02T21:00:00Z,26.4966,-82.1479,2.1,5.0,1111122 
SCCF RECON,ioos:station:SCCF:12:1,2009-07-02T22:00:00Z,26.4966,-82.1479,2.01,5.43,1111122 
SCCF RECON,ioos:station:SCCF:12:1,2009-07-02T23:00:00Z,26.4966,-82.1479,2.01,5.41,1111122 
SCCF RECON,ioos:station:SCCF:12:1,2009-07-03T00:00:00Z,26.4966,-82.1479,2.067,5.48,1111122 
SCCF RECON,ioos:station:SCCF:12:1,2009-07-03T01:00:00Z,26.4966,-82.1479,2.17,5.28,1111122 
SCCF RECON,ioos:station:SCCF:12:1,2009-07-03T02:00:00Z,26.4966,-82.1479,2.25,4.32,1111122 
SCCF RECON,ioos:station:SCCF:12:1,2009-07-03T03:00:00Z,26.4966,-82.1479,2.29,4.13,1111122 
SCCF RECON,ioos:station:SCCF:12:1,2009-07-03T04:00:00Z,26.4966,-82.1479,2.328,4.98,1111122 
SCCF RECON,ioos:station:SCCF:12:1,2009-07-03T05:00:00Z,26.4966,-82.1479,2.4,4.99,1111122 
SCCF RECON,ioos:station:SCCF:12:1,2009-07-03T06:00:00Z,26.4966,-82.1479,2.435,5.21,1111122 
SCCF RECON,ioos:station:SCCF:12:1,2009-07-03T07:00:00Z,26.4966,-82.1479,2.41,5.07,1111122 
SCCF RECON,ioos:station:SCCF:12:1,2009-07-03T08:00:00Z,26.4966,-82.1479,2.382,4.87,1111122 
SCCF RECON,ioos:station:SCCF:12:1,2009-07-03T09:00:00Z,26.4966,-82.1479,2.38,4.24,1111122 
SCCF RECON,ioos:station:SCCF:12:1,2009-07-03T10:00:00Z,26.4966,-82.1479,2.4,4.7,1111122 
SCCF RECON,ioos:station:SCCF:12:1,2009-07-03T11:00:00Z,26.4966,-82.1479,2.48,4.81,1111122 
SCCF RECON,ioos:station:SCCF:12:1,2009-07-03T12:00:00Z,26.4966,-82.1479,2.585,4.0,1111122 
SCCF RECON,ioos:station:SCCF:12:1,2009-07-03T13:00:00Z,26.4966,-82.1479,2.64,3.5,1111122 
SCCF RECON,ioos:station:SCCF:12:1,2009-07-03T14:00:00Z,26.4966,-82.1479,2.64,4.09,1111122 
SCCF RECON,ioos:station:SCCF:12:1,2009-07-03T15:00:00Z,26.4966,-82.1479,2.63,4.26,1111122 
SCCF RECON,ioos:station:SCCF:12:1,2009-07-03T16:00:00Z,26.4966,-82.1479,2.6,4.44,1111122 
SCCF RECON,ioos:station:SCCF:12:1,2009-07-03T17:00:00Z,26.4966,-82.1479,2.537,4.8,1111122 
SCCF RECON,ioos:station:SCCF:12:1,2009-07-03T18:00:00Z,26.4966,-82.1479,2.439,4.09,1111122 
SCCF RECON,ioos:station:SCCF:12:1,2009-07-03T19:00:00Z,26.4966,-82.1479,2.321,5.03,1111122 
SCCF RECON,ioos:station:SCCF:12:1,2009-07-03T20:00:00Z,26.4966,-82.1479,2.204,4.37,1111122 
SCCF RECON,ioos:station:SCCF:12:1,2009-07-03T21:00:00Z,26.4966,-82.1479,2.083,5.4,1111122 
SCCF RECON,ioos:station:SCCF:12:1,2009-07-03T22:00:00Z,26.4966,-82.1479,1.975,5.01,1111122 
SCCF RECON,ioos:station:SCCF:12:1,2009-07-03T23:00:00Z,26.4966,-82.1479,1.901,5.31,1111122 
SCCF RECON,ioos:station:SCCF:12:1,2009-07-04T00:00:00Z,26.4966,-82.1479,1.89,5.37,1111122 
SCCF RECON,ioos:station:SCCF:12:1,2009-07-04T01:00:00Z,26.4966,-82.1479,1.99,5.34,1111122 
SCCF RECON,ioos:station:SCCF:12:1,2009-07-04T02:00:00Z,26.4966,-82.1479,2.14,4.91,1111122 
SCCF RECON,ioos:station:SCCF:12:1,2009-07-04T03:00:00Z,26.4966,-82.1479,2.24,4.85,1111122 
SCCF RECON,ioos:station:SCCF:12:1,2009-07-04T04:00:00Z,26.4966,-82.1479,2.34,5.17,1111122 
SCCF RECON,ioos:station:SCCF:12:1,2009-07-04T05:00:00Z,26.4966,-82.1479,2.42,4.98,1111122 
SCCF RECON,ioos:station:SCCF:12:1,2009-07-04T06:00:00Z,26.4966,-82.1479,2.44,5.31,1111122 
SCCF RECON,ioos:station:SCCF:12:1,2009-07-04T07:00:00Z,26.4966,-82.1479,2.41,4.86,1111122 
SCCF RECON,ioos:station:SCCF:12:1,2009-07-04T08:00:00Z,26.4966,-82.1479,2.4,4.78,1111122 
SCCF RECON,ioos:station:SCCF:12:1,2009-07-04T09:00:00Z,26.4966,-82.1479,2.4,4.56,1111122 
SCCF RECON,ioos:station:SCCF:12:1,2009-07-04T10:00:00Z,26.4966,-82.1479,2.4,3.73,1111122 
SCCF RECON,ioos:station:SCCF:12:1,2009-07-04T11:00:00Z,26.4966,-82.1479,2.43,4.23,1111122 
SCCF RECON,ioos:station:SCCF:12:1,2009-07-04T12:00:00Z,26.4966,-82.1479,2.49,4.28,1111122 
SCCF RECON,ioos:station:SCCF:12:1,2009-07-04T13:00:00Z,26.4966,-82.1479,2.559,4.14,1111122 
SCCF RECON,ioos:station:SCCF:12:1,2009-07-04T14:00:00Z,26.4966,-82.1479,2.61,4.37,1111122 
SCCF RECON,ioos:station:SCCF:12:1,2009-07-04T15:00:00Z,26.4966,-82.1479,2.65,4.61,1111122 
SCCF RECON,ioos:station:SCCF:12:1,2009-07-04T16:00:00Z,26.4966,-82.1479,2.659,4.2,1111122 
SCCF RECON,ioos:station:SCCF:12:1,2009-07-04T17:00:00Z,26.4966,-82.1479,2.62,3.33,1111122 
SCCF RECON,ioos:station:SCCF:12:1,2009-07-04T18:00:00Z,26.4966,-82.1479,2.53,4.55,1111122 
SCCF RECON,ioos:station:SCCF:12:1,2009-07-04T19:00:00Z,26.4966,-82.1479,2.41,4.56,1111122 
SCCF RECON,ioos:station:SCCF:12:1,2009-07-04T20:00:00Z,26.4966,-82.1479,2.281,4.26,1111122 
SCCF RECON,ioos:station:SCCF:12:1,2009-07-04T21:00:00Z,26.4966,-82.1479,2.152,5.0,1111122 
SCCF RECON,ioos:station:SCCF:12:1,2009-07-04T22:00:00Z,26.4966,-82.1479,2.021,5.44,1111122 
SCCF RECON,ioos:station:SCCF:12:1,2009-07-04T23:00:00Z,26.4966,-82.1479,1.92,5.64,1111122 
SCCF RECON,ioos:station:SCCF:12:1,2009-07-05T00:00:00Z,26.4966,-82.1479,1.852,5.98,1111122 
SCCF RECON,ioos:station:SCCF:12:1,2009-07-05T01:00:00Z,26.4966,-82.1479,1.878,5.76,1111122 
SCCF RECON,ioos:station:SCCF:12:1,2009-07-05T02:00:00Z,26.4966,-82.1479,2.019,5.53,1111122 
SCCF RECON,ioos:station:SCCF:12:1,2009-07-05T03:00:00Z,26.4966,-82.1479,2.159,4.44,1111122 
SCCF RECON,ioos:station:SCCF:12:1,2009-07-05T04:00:00Z,26.4966,-82.1479,2.282,5.3,1111122 
SCCF RECON,ioos:station:SCCF:12:1,2009-07-05T05:00:00Z,26.4966,-82.1479,2.38,5.23,1111122 
SCCF RECON,ioos:station:SCCF:12:1,2009-07-05T06:00:00Z,26.4966,-82.1479,2.43,5.26,1111122 
SCCF RECON,ioos:station:SCCF:12:1,2009-07-05T07:00:00Z,26.4966,-82.1479,2.45,5.16,1111122 
SCCF RECON,ioos:station:SCCF:12:1,2009-07-05T08:00:00Z,26.4966,-82.1479,2.43,4.96,1111122 
SCCF RECON,ioos:station:SCCF:12:1,2009-07-05T09:00:00Z,26.4966,-82.1479,2.41,5.05,1111122 
SCCF RECON,ioos:station:SCCF:12:1,2009-07-05T10:00:00Z,26.4966,-82.1479,2.4,4.31,1111122 
SCCF RECON,ioos:station:SCCF:12:1,2009-07-05T11:00:00Z,26.4966,-82.1479,2.411,2.95,1111122 
SCCF RECON,ioos:station:SCCF:12:1,2009-07-05T12:00:00Z,26.4966,-82.1479,2.45,4.16,1111122 
SCCF RECON,ioos:station:SCCF:12:1,2009-07-05T13:00:00Z,26.4966,-82.1479,2.52,4.05,1111122 
SCCF RECON,ioos:station:SCCF:12:1,2009-07-05T14:00:00Z,26.4966,-82.1479,2.634,4.52,1111122 
SCCF RECON,ioos:station:SCCF:12:1,2009-07-05T15:00:00Z,26.4966,-82.1479,2.73,4.48,1111122 
SCCF RECON,ioos:station:SCCF:12:1,2009-07-05T16:00:00Z,26.4966,-82.1479,2.77,3.89,1111122 
SCCF RECON,ioos:station:SCCF:12:1,2009-07-05T17:00:00Z,26.4966,-82.1479,2.758,3.61,1111122 
SCCF RECON,ioos:station:SCCF:12:1,2009-07-05T18:00:00Z,26.4966,-82.1479,2.652,4.85,1111122 
SCCF RECON,ioos:station:SCCF:12:1,2009-07-05T19:00:00Z,26.4966,-82.1479,2.527,4.69,1111122 
SCCF RECON,ioos:station:SCCF:12:1,2009-07-05T20:00:00Z,26.4966,-82.1479,2.39,4.69,1111122 
SCCF RECON,ioos:station:SCCF:12:1,2009-07-05T21:00:00Z,26.4966,-82.1479,2.265,5.02,1111122 
SCCF RECON,ioos:station:SCCF:12:1,2009-07-05T22:00:00Z,26.4966,-82.1479,2.14,5.72,1111122 
SCCF RECON,ioos:station:SCCF:12:1,2009-07-05T23:00:00Z,26.4966,-82.1479,2.03,6.53,1111122 
SCCF RECON,ioos:station:SCCF:12:1,2009-07-06T00:00:00Z,26.4966,-82.1479,1.94,5.97,1111122 
SCCF RECON,ioos:station:SCCF:12:1,2009-07-06T01:00:00Z,26.4966,-82.1479,1.89,5.72,1111122 
SCCF RECON,ioos:station:SCCF:12:1,2009-07-06T02:00:00Z,26.4966,-82.1479,1.97,5.51,1111122 
SCCF RECON,ioos:station:SCCF:12:1,2009-07-06T03:00:00Z,26.4966,-82.1479,2.14,5.13,1111122 
SCCF RECON,ioos:station:SCCF:12:1,2009-07-06T04:00:00Z,26.4966,-82.1479,2.271,5.11,1111122 
SCCF RECON,ioos:station:SCCF:12:1,2009-07-06T05:00:00Z,26.4966,-82.1479,2.37,5.07,1111122 
SCCF RECON,ioos:station:SCCF:12:1,2009-07-06T06:00:00Z,26.4966,-82.1479,2.45,5.8,1111122 
SCCF RECON,ioos:station:SCCF:12:1,2009-07-06T07:00:00Z,26.4966,-82.1479,2.49,5.49,1111122 
SCCF RECON,ioos:station:SCCF:12:1,2009-07-06T08:00:00Z,26.4966,-82.1479,2.49,5.29,1111122 
SCCF RECON,ioos:station:SCCF:12:1,2009-07-06T09:00:00Z,26.4966,-82.1479,2.47,5.0,1111122 
SCCF RECON,ioos:station:SCCF:12:1,2009-07-06T10:00:00Z,26.4966,-82.1479,2.46,5.66,1111122 
SCCF RECON,ioos:station:SCCF:12:1,2009-07-06T11:00:00Z,26.4966,-82.1479,2.46,5.85,1111122 
SCCF RECON,ioos:station:SCCF:12:1,2009-07-06T12:00:00Z,26.4966,-82.1479,2.43,5.58,1111122 
SCCF RECON,ioos:station:SCCF:12:1,2009-07-06T13:00:00Z,26.4966,-82.1479,2.48,4.74,1111122 
SCCF RECON,ioos:station:SCCF:12:1,2009-07-06T14:00:00Z,26.4966,-82.1479,2.571,4.35,1111122 
SCCF RECON,ioos:station:SCCF:12:1,2009-07-06T15:00:00Z,26.4966,-82.1479,2.67,4.4,1111122 
SCCF RECON,ioos:station:SCCF:12:1,2009-07-06T16:00:00Z,26.4966,-82.1479,2.76,4.48,1111122 
SCCF RECON,ioos:station:SCCF:12:1,2009-07-06T17:00:00Z,26.4966,-82.1479,2.784,4.95,1111122 
SCCF RECON,ioos:station:SCCF:12:1,2009-07-06T18:00:00Z,26.4966,-82.1479,2.73,4.66,1111122 
SCCF RECON,ioos:station:SCCF:12:1,2009-07-06T19:00:00Z,26.4966,-82.1479,2.62,4.72,1111122 
SCCF RECON,ioos:station:SCCF:12:1,2009-07-06T20:00:00Z,26.4966,-82.1479,2.5,5.21,1111122 
SCCF RECON,ioos:station:SCCF:12:1,2009-07-06T21:00:00Z,26.4966,-82.1479,2.37,5.28,1111122 
SCCF RECON,ioos:station:SCCF:12:1,2009-07-06T22:00:00Z,26.4966,-82.1479,2.24,6.16,1111122 
SCCF RECON,ioos:station:SCCF:12:1,2009-07-06T23:00:00Z,26.4966,-82.1479,2.119,6.0,1111122 
SCCF RECON,ioos:station:SCCF:12:1,2009-07-07T00:00:00Z,26.4966,-82.1479,2.002,5.75,1111122 
SCCF RECON,ioos:station:SCCF:12:1,2009-07-07T01:00:00Z,26.4966,-82.1479,1.924,5.47,1111122 
SCCF RECON,ioos:station:SCCF:12:1,2009-07-07T02:00:00Z,26.4966,-82.1479,1.91,5.64,1111122 
SCCF RECON,ioos:station:SCCF:12:1,2009-07-07T03:00:00Z,26.4966,-82.1479,2.012,5.55,1111122 
SCCF RECON,ioos:station:SCCF:12:1,2009-07-07T04:00:00Z,26.4966,-82.1479,2.181,4.98,1111122 
SCCF RECON,ioos:station:SCCF:12:1,2009-07-07T05:00:00Z,26.4966,-82.1479,2.31,5.25,1111122 
SCCF RECON,ioos:station:SCCF:12:1,2009-07-07T06:00:00Z,26.4966,-82.1479,2.41,5.11,1111122 
SCCF RECON,ioos:station:SCCF:12:1,2009-07-07T07:00:00Z,26.4966,-82.1479,2.45,5.54,1111122 
SCCF RECON,ioos:station:SCCF:12:1,2009-07-07T08:00:00Z,26.4966,-82.1479,2.46,5.1,1111122 
SCCF RECON,ioos:station:SCCF:12:1,2009-07-07T09:00:00Z,26.4966,-82.1479,2.43,4.86,1111122 
SCCF RECON,ioos:station:SCCF:12:1,2009-07-07T10:00:00Z,26.4966,-82.1479,2.42,4.79,1111122 
SCCF RECON,ioos:station:SCCF:12:1,2009-07-07T11:00:00Z,26.4966,-82.1479,2.454,5.03,1111122 
SCCF RECON,ioos:station:SCCF:12:1,2009-07-07T12:00:00Z,26.4966,-82.1479,2.47,5.25,1111122 
SCCF RECON,ioos:station:SCCF:12:1,2009-07-07T13:00:00Z,26.4966,-82.1479,2.48,4.01,1111122 
SCCF RECON,ioos:station:SCCF:12:1,2009-07-07T14:00:00Z,26.4966,-82.1479,2.52,4.49,1111122 
SCCF RECON,ioos:station:SCCF:12:1,2009-07-07T15:00:00Z,26.4966,-82.1479,2.62,4.47,1111122 
SCCF RECON,ioos:station:SCCF:12:1,2009-07-07T16:00:00Z,26.4966,-82.1479,2.71,5.01,1111122 
SCCF RECON,ioos:station:SCCF:12:1,2009-07-07T17:00:00Z,26.4966,-82.1479,2.78,4.63,1111122 
SCCF RECON,ioos:station:SCCF:12:1,2009-07-07T18:00:00Z,26.4966,-82.1479,2.782,3.92,1111122 
SCCF RECON,ioos:station:SCCF:12:1,2009-07-07T19:00:00Z,26.4966,-82.1479,2.71,4.73,1111122 
SCCF RECON,ioos:station:SCCF:12:1,2009-07-07T20:00:00Z,26.4966,-82.1479,2.607,5.27,1111122 
SCCF RECON,ioos:station:SCCF:12:1,2009-07-07T21:00:00Z,26.4966,-82.1479,2.47,5.1,1111122 
SCCF RECON,ioos:station:SCCF:12:1,2009-07-07T22:00:00Z,26.4966,-82.1479,2.33,5.61,1111122 
SCCF RECON,ioos:station:SCCF:12:1,2009-07-07T23:00:00Z,26.4966,-82.1479,2.2,5.74,1111122 
SCCF RECON,ioos:station:SCCF:12:1,2009-07-08T00:00:00Z,26.4966,-82.1479,2.08,5.87,1111122 
SCCF RECON,ioos:station:SCCF:12:1,2009-07-08T01:00:00Z,26.4966,-82.1479,1.99,6.22,1111122 
SCCF RECON,ioos:station:SCCF:12:1,2009-07-08T02:00:00Z,26.4966,-82.1479,1.941,5.28,1111122 
SCCF RECON,ioos:station:SCCF:12:1,2009-07-08T03:00:00Z,26.4966,-82.1479,1.98,5.45,1111122 
SCCF RECON,ioos:station:SCCF:12:1,2009-07-08T04:00:00Z,26.4966,-82.1479,2.09,5.46,1111122 
SCCF RECON,ioos:station:SCCF:12:1,2009-07-08T05:00:00Z,26.4966,-82.1479,2.214,4.91,1111122 
SCCF RECON,ioos:station:SCCF:12:1,2009-07-08T06:00:00Z,26.4966,-82.1479,2.35,5.27,1111122 
SCCF RECON,ioos:station:SCCF:12:1,2009-07-08T07:00:00Z,26.4966,-82.1479,2.43,5.54,1111122 
SCCF RECON,ioos:station:SCCF:12:1,2009-07-08T08:00:00Z,26.4966,-82.1479,2.47,5.39,1111122 
SCCF RECON,ioos:station:SCCF:12:1,2009-07-08T09:00:00Z,26.4966,-82.1479,2.47,5.13,1111122 
SCCF RECON,ioos:station:SCCF:12:1,2009-07-08T10:00:00Z,26.4966,-82.1479,2.426,4.9,1111122 
SCCF RECON,ioos:station:SCCF:12:1,2009-07-08T11:00:00Z,26.4966,-82.1479,2.38,4.69,1111122 
SCCF RECON,ioos:station:SCCF:12:1,2009-07-08T12:00:00Z,26.4966,-82.1479,2.365,4.54,1111122 
SCCF RECON,ioos:station:SCCF:12:1,2009-07-08T13:00:00Z,26.4966,-82.1479,2.39,4.34,1111122 
SCCF RECON,ioos:station:SCCF:12:1,2009-07-08T14:00:00Z,26.4966,-82.1479,2.445,4.65,1111122 
SCCF RECON,ioos:station:SCCF:12:1,2009-07-08T15:00:00Z,26.4966,-82.1479,2.54,4.82,1111122 
SCCF RECON,ioos:station:SCCF:12:1,2009-07-08T16:00:00Z,26.4966,-82.1479,2.64,4.95,1111122 
SCCF RECON,ioos:station:SCCF:12:1,2009-07-08T17:00:00Z,26.4966,-82.1479,2.725,4.96,1111122 
SCCF RECON,ioos:station:SCCF:12:1,2009-07-08T18:00:00Z,26.4966,-82.1479,2.77,5.01,1111122 
SCCF RECON,ioos:station:SCCF:12:1,2009-07-08T19:00:00Z,26.4966,-82.1479,2.759,5.06,1111122 
SCCF RECON,ioos:station:SCCF:12:1,2009-07-08T20:00:00Z,26.4966,-82.1479,2.66,5.91,1111122 
SCCF RECON,ioos:station:SCCF:12:1,2009-07-08T21:00:00Z,26.4966,-82.1479,2.54,5.85,1111122 
SCCF RECON,ioos:station:SCCF:12:1,2009-07-08T22:00:00Z,26.4966,-82.1479,2.42,5.34,1111122 
SCCF RECON,ioos:station:SCCF:12:1,2009-07-08T23:00:00Z,26.4966,-82.1479,2.29,5.56,1111122 
SCCF RECON,ioos:station:SCCF:12:1,2009-07-09T00:00:00Z,26.4966,-82.1479,2.169,5.78,1111122 
SCCF RECON,ioos:station:SCCF:12:1,2009-07-09T01:00:00Z,26.4966,-82.1479,2.06,5.54,1111122 
SCCF RECON,ioos:station:SCCF:12:1,2009-07-09T02:00:00Z,26.4966,-82.1479,1.97,4.97,1111122 
SCCF RECON,ioos:station:SCCF:12:1,2009-07-09T03:00:00Z,26.4966,-82.1479,1.94,5.39,1111122 
SCCF RECON,ioos:station:SCCF:12:1,2009-07-09T04:00:00Z,26.4966,-82.1479,2.01,5.57,1111122 
SCCF RECON,ioos:station:SCCF:12:1,2009-07-09T05:00:00Z,26.4966,-82.1479,2.17,4.44,1111122 
SCCF RECON,ioos:station:SCCF:12:1,2009-07-09T06:00:00Z,26.4966,-82.1479,2.327,5.13,1111122 
SCCF RECON,ioos:station:SCCF:12:1,2009-07-09T07:00:00Z,26.4966,-82.1479,2.43,5.31,1111122 
SCCF RECON,ioos:station:SCCF:12:1,2009-07-09T08:00:00Z,26.4966,-82.1479,2.462,4.94,1111122 
SCCF RECON,ioos:station:SCCF:12:1,2009-07-09T09:00:00Z,26.4966,-82.1479,2.449,5.35,1111122 
SCCF RECON,ioos:station:SCCF:12:1,2009-07-09T10:00:00Z,26.4966,-82.1479,2.39,5.03,1111122 
SCCF RECON,ioos:station:SCCF:12:1,2009-07-09T11:00:00Z,26.4966,-82.1479,2.35,4.81,1111122 
SCCF RECON,ioos:station:SCCF:12:1,2009-07-09T12:00:00Z,26.4966,-82.1479,2.35,4.62,1111122 
SCCF RECON,ioos:station:SCCF:12:1,2009-07-09T13:00:00Z,26.4966,-82.1479,2.35,4.82,1111122 
SCCF RECON,ioos:station:SCCF:12:1,2009-07-09T14:00:00Z,26.4966,-82.1479,2.38,4.91,1111122 
SCCF RECON,ioos:station:SCCF:12:1,2009-07-09T15:00:00Z,26.4966,-82.1479,2.46,4.64,1111122 
SCCF RECON,ioos:station:SCCF:12:1,2009-07-09T16:00:00Z,26.4966,-82.1479,2.56,4.05,1111122 
SCCF RECON,ioos:station:SCCF:12:1,2009-07-09T17:00:00Z,26.4966,-82.1479,2.65,4.09,1111122 
SCCF RECON,ioos:station:SCCF:12:1,2009-07-09T18:00:00Z,26.4966,-82.1479,1.0,7.42,1111122 
SCCF RECON,ioos:station:SCCF:12:1,2009-07-09T19:00:00Z,26.4966,-82.1479,2.689,4.34,1111122 
SCCF RECON,ioos:station:SCCF:12:1,2009-07-09T20:00:00Z,26.4966,-82.1479,2.64,5.4,1111122 
SCCF RECON,ioos:station:SCCF:12:1,2009-07-09T21:00:00Z,26.4966,-82.1479,2.56,5.73,1111122 
SCCF RECON,ioos:station:SCCF:12:1,2009-07-09T22:00:00Z,26.4966,-82.1479,2.44,5.32,1111122 
SCCF RECON,ioos:station:SCCF:12:1,2009-07-09T23:00:00Z,26.4966,-82.1479,2.312,5.73,1111122 
SCCF RECON,ioos:station:SCCF:12:1,2009-07-10T00:00:00Z,26.4966,-82.1479,2.227,6.6,1111122 
SCCF RECON,ioos:station:SCCF:12:1,2009-07-10T01:00:00Z,26.4966,-82.1479,2.077,6.44,1111122 
SCCF RECON,ioos:station:SCCF:12:1,2009-07-10T02:00:00Z,26.4966,-82.1479,1.98,6.98,1111122 
SCCF RECON,ioos:station:SCCF:12:1,2009-07-10T03:00:00Z,26.4966,-82.1479,1.95,6.62,1111122 
SCCF RECON,ioos:station:SCCF:12:1,2009-07-10T04:00:00Z,26.4966,-82.1479,2.031,5.19,1111122 
SCCF RECON,ioos:station:SCCF:12:1,2009-07-10T05:00:00Z,26.4966,-82.1479,2.207,5.02,1111122 
SCCF RECON,ioos:station:SCCF:12:1,2009-07-10T06:00:00Z,26.4966,-82.1479,2.338,5.01,1111122 
SCCF RECON,ioos:station:SCCF:12:1,2009-07-10T07:00:00Z,26.4966,-82.1479,2.42,5.4,1111122 
SCCF RECON,ioos:station:SCCF:12:1,2009-07-10T08:00:00Z,26.4966,-82.1479,2.46,4.99,1111122 
SCCF RECON,ioos:station:SCCF:12:1,2009-07-10T09:00:00Z,26.4966,-82.1479,2.47,5.34,1111122 
SCCF RECON,ioos:station:SCCF:12:1,2009-07-10T10:00:00Z,26.4966,-82.1479,2.415,5.15,1111122 
SCCF RECON,ioos:station:SCCF:12:1,2009-07-10T11:00:00Z,26.4966,-82.1479,2.36,4.98,1111122 
SCCF RECON,ioos:station:SCCF:12:1,2009-07-10T12:00:00Z,26.4966,-82.1479,2.29,4.89,1111122 
SCCF RECON,ioos:station:SCCF:12:1,2009-07-10T13:00:00Z,26.4966,-82.1479,2.29,4.89,1111122 
SCCF RECON,ioos:station:SCCF:12:1,2009-07-10T14:00:00Z,26.4966,-82.1479,2.34,4.9,1111122 
SCCF RECON,ioos:station:SCCF:12:1,2009-07-10T15:00:00Z,26.4966,-82.1479,2.4,4.95,1111122 
SCCF RECON,ioos:station:SCCF:12:1,2009-07-10T16:00:00Z,26.4966,-82.1479,2.478,4.86,1111122 
SCCF RECON,ioos:station:SCCF:12:1,2009-07-10T17:00:00Z,26.4966,-82.1479,2.577,4.54,1111122 
SCCF RECON,ioos:station:SCCF:12:1,2009-07-10T18:00:00Z,26.4966,-82.1479,2.65,4.53,1111122 
SCCF RECON,ioos:station:SCCF:12:1,2009-07-10T19:00:00Z,26.4966,-82.1479,2.66,5.55,1111122 
SCCF RECON,ioos:station:SCCF:12:1,2009-07-10T20:00:00Z,26.4966,-82.1479,2.626,5.89,1111122 
SCCF RECON,ioos:station:SCCF:12:1,2009-07-10T21:00:00Z,26.4966,-82.1479,2.56,5.34,1111122 
SCCF RECON,ioos:station:SCCF:12:1,2009-07-10T22:00:00Z,26.4966,-82.1479,2.47,4.45,1111122 
SCCF RECON,ioos:station:SCCF:12:1,2009-07-10T23:00:00Z,26.4966,-82.1479,2.36,4.01,1111122 
SCCF RECON,ioos:station:SCCF:12:1,2009-07-11T00:00:00Z,26.4966,-82.1479,2.26,4.57,1111122 
SCCF RECON,ioos:station:SCCF:12:1,2009-07-11T01:00:00Z,26.4966,-82.1479,2.15,5.27,1111122 
SCCF RECON,ioos:station:SCCF:12:1,2009-07-11T02:00:00Z,26.4966,-82.1479,2.06,5.68,1111122 
SCCF RECON,ioos:station:SCCF:12:1,2009-07-11T03:00:00Z,26.4966,-82.1479,2.01,3.81,1111122 
SCCF RECON,ioos:station:SCCF:12:1,2009-07-11T04:00:00Z,26.4966,-82.1479,2.038,5.38,1111122 
SCCF RECON,ioos:station:SCCF:12:1,2009-07-11T05:00:00Z,26.4966,-82.1479,2.159,5.82,1111122 
SCCF RECON,ioos:station:SCCF:12:1,2009-07-11T06:00:00Z,26.4966,-82.1479,2.31,5.42,1111122 
SCCF RECON,ioos:station:SCCF:12:1,2009-07-11T07:00:00Z,26.4966,-82.1479,2.41,4.95,1111122 
SCCF RECON,ioos:station:SCCF:12:1,2009-07-11T08:00:00Z,26.4966,-82.1479,2.49,5.04,1111122 
SCCF RECON,ioos:station:SCCF:12:1,2009-07-11T09:00:00Z,26.4966,-82.1479,2.51,5.39,1111122 
SCCF RECON,ioos:station:SCCF:12:1,2009-07-11T10:00:00Z,26.4966,-82.1479,2.47,4.9,1111122 
SCCF RECON,ioos:station:SCCF:12:1,2009-07-11T11:00:00Z,26.4966,-82.1479,2.42,4.63,1111122 
SCCF RECON,ioos:station:SCCF:12:1,2009-07-11T12:00:00Z,26.4966,-82.1479,2.36,4.52,1111122 
SCCF RECON,ioos:station:SCCF:12:1,2009-07-11T13:00:00Z,26.4966,-82.1479,2.26,4.76,1111122 
SCCF RECON,ioos:station:SCCF:12:1,2009-07-11T14:00:00Z,26.4966,-82.1479,2.23,4.97,1111122 
SCCF RECON,ioos:station:SCCF:12:1,2009-07-11T15:00:00Z,26.4966,-82.1479,2.287,5.1,1111122 
SCCF RECON,ioos:station:SCCF:12:1,2009-07-11T16:00:00Z,26.4966,-82.1479,2.4,5.2,1111122 
SCCF RECON,ioos:station:SCCF:12:1,2009-07-11T17:00:00Z,26.4966,-82.1479,2.531,4.87,1111122 
SCCF RECON,ioos:station:SCCF:12:1,2009-07-11T18:00:00Z,26.4966,-82.1479,2.6,5.35,1111122 
SCCF RECON,ioos:station:SCCF:12:1,2009-07-11T19:00:00Z,26.4966,-82.1479,2.639,5.73,1111122 
SCCF RECON,ioos:station:SCCF:12:1,2009-07-11T20:00:00Z,26.4966,-82.1479,2.649,5.93,1111122 
SCCF RECON,ioos:station:SCCF:12:1,2009-07-11T21:00:00Z,26.4966,-82.1479,2.612,5.54,1111122 